Weather History for KSUW - May, 2013

Change the Weather History Date:

Tuesday, May 14, 2013

  Actual Average (KDLH) Record (KDLH)
Temperature  
Mean Temperature 42 °F 51 °F  
Max Temperature 63 °F 62 °F 91 °F (1932)
Min Temperature 30 °F 40 °F 27 °F (1921)
Degree Days  
Heating Degree Days 23 14  
Month to date heating degree days 226  
Since 1 July heating degree days 9065  
Cooling Degree Days 0 0  
Month to date cooling degree days 0  
Year to date cooling degree days 0  
Moisture  
Dew Point 34 °F    
Average Humidity 77    
Maximum Humidity 96    
Minimum Humidity 56    
Precipitation  
Precipitation 0.02 in 0.10 in 1.30 in (1961)
Month to date precipitation 1.41  
Year to date precipitation 7.10  
Snow  
Snow 0.00 in 0.00 in 1.00 in (1974)
Month to date snowfall 0.4  
Since 1 July snowfall 86.1  
Snow Depth -    
Sea Level Pressure  
Sea Level Pressure 29.62 in    
Wind  
Wind Speed 5 mph (NE)    
Max Wind Speed 15 mph    
Max Gust Speed 22 mph    
Visibility 10 miles    
Events Rain    
T = Trace of Precipitation, MM = Missing Value Source: NWS Daily Summary

Daily Weather History Graph

Daily Weather History Graph

Search for Another Location

Airport or City:

Trip Planner

Search our weather history database for the weather conditions in past years. The results will help you decide how hot, cold, wet, or windy it might be!

Date:

Astronomy

May. 14, 2013 Rise Set
Actual Time 5:34 AM CDT 8:35 PM CDT
Civil Twilight 4:59 AM CDT 9:11 PM CDT
Nautical Twilight 4:13 AM CDT 9:57 PM CDT
Astronomical Twilight 3:18 AM CDT 10:52 PM CDT
Moon 9:15 AM CDT (5/14) No Moon Set
Length of Visible Light 16h 11m
Length of Day
15h 00m
Waxing Crescent, 19% of the Moon is Illuminated
May 14
Waxing Crescent
May 17
First Quarter
May 24
Full
May 31
Last Quarter
Jun 8
New

Hourly Weather History & Observations

Time (CDT) Temp. Windchill Dew Point Humidity Pressure Visibility Wind Dir Wind Speed Gust Speed Precip Events Conditions
12:15 AM 34.5 °F 31.6 °F 31.1 °F 87% 29.70 in 10.0 mi NE 3.5 mph - N/A   Clear
12:35 AM 35.1 °F 32.2 °F 31.5 °F 87% 29.70 in 10.0 mi NE 3.5 mph - N/A   Clear
12:55 AM 35.1 °F 30.1 °F 31.8 °F 88% 29.70 in 10.0 mi East 5.8 mph - N/A   Clear
1:15 AM 35.8 °F 30.9 °F 31.8 °F 86% 29.71 in 10.0 mi ENE 5.8 mph - N/A   Clear
1:35 AM 35.8 °F 31.9 °F 32.0 °F 86% 29.70 in 10.0 mi East 4.6 mph - N/A   Clear
1:55 AM 35.1 °F 32.2 °F 32.0 °F 89% 29.70 in 10.0 mi ENE 3.5 mph - N/A   Clear
2:15 AM 34.9 °F - 32.0 °F 89% 29.69 in 10.0 mi Calm Calm - N/A   Clear
2:35 AM 35.2 °F 32.4 °F 32.2 °F 89% 29.69 in 10.0 mi NE 3.5 mph - N/A   Clear
2:55 AM 33.1 °F - 31.6 °F 94% 29.69 in 10.0 mi Calm Calm - N/A   Clear
3:15 AM 35.2 °F 29.5 °F 32.0 °F 88% 29.69 in 10.0 mi NE 6.9 mph - N/A   Clear
3:35 AM 34.5 °F - 31.6 °F 89% 29.69 in 10.0 mi Calm Calm - N/A   Clear
3:55 AM 32.7 °F 28.3 °F 31.1 °F 94% 29.69 in 10.0 mi NE 4.6 mph - N/A   Clear
4:15 AM 33.4 °F - 31.6 °F 93% 29.70 in 10.0 mi Calm Calm - N/A   Clear
4:35 AM 33.6 °F 30.6 °F 32.0 °F 94% 29.69 in 10.0 mi North 3.5 mph - N/A   Clear
4:55 AM 32.4 °F - 31.5 °F 96% 29.70 in 10.0 mi Calm Calm - N/A   Clear
5:15 AM 31.5 °F - 30.4 °F 96% 29.69 in 10.0 mi Calm Calm - N/A   Clear
5:35 AM 31.8 °F - 30.4 °F 94% 29.69 in 10.0 mi Calm Calm - N/A   Clear
5:55 AM 30.0 °F - 29.1 °F 96% 29.69 in 10.0 mi Calm Calm - N/A   Clear
6:15 AM 30.0 °F - 29.1 °F 96% 29.69 in 10.0 mi Calm Calm - N/A   Clear
6:35 AM 32.9 °F - 32.0 °F 96% 29.69 in 10.0 mi Calm Calm - N/A   Clear
6:55 AM 37.0 °F - 33.4 °F 87% 29.69 in 10.0 mi Calm Calm - N/A   Clear
7:15 AM 39.4 °F 35.2 °F 33.6 °F 80% 29.67 in 10.0 mi ENE 5.8 mph - N/A   Clear
7:35 AM 40.5 °F 35.1 °F 33.1 °F 75% 29.69 in 10.0 mi ENE 8.1 mph - N/A   Clear
7:55 AM 39.6 °F 34.7 °F 32.9 °F 77% 29.68 in 10.0 mi ENE 6.9 mph - N/A   Clear
8:15 AM 39.6 °F 36.3 °F 32.9 °F 77% 29.71 in 10.0 mi NE 4.6 mph - N/A   Clear
8:35 AM 39.7 °F 36.5 °F 32.9 °F 77% 29.71 in 10.0 mi NE 4.6 mph - N/A   Clear
8:55 AM 39.4 °F 34.5 °F 32.5 °F 76% 29.70 in 10.0 mi NE 6.9 mph - N/A   Scattered Clouds
9:15 AM 39.7 °F 35.6 °F 32.4 °F 75% 29.74 in 10.0 mi NNE 5.8 mph - N/A   Mostly Cloudy
9:35 AM 40.1 °F 38.0 °F 32.7 °F 75% 29.80 in 10.0 mi NNW 3.5 mph - N/A Rain Light Rain
9:55 AM 41.2 °F - 34.9 °F 78% 29.81 in 10.0 mi Calm Calm - 0.01 in Rain Light Rain
10:15 AM 41.2 °F 38.2 °F 33.8 °F 75% 29.81 in 10.0 mi SSW 4.6 mph - N/A Rain Light Rain
10:35 AM 41.5 °F - 34.7 °F 77% 29.82 in 10.0 mi Calm Calm - N/A Rain Light Rain
10:55 AM 41.4 °F 36.8 °F 37.6 °F 86% 29.77 in 10.0 mi SE 6.9 mph - 0.01 in Rain Light Rain
11:15 AM 41.7 °F 36.1 °F 39.0 °F 90% 29.72 in 10.0 mi SSE 9.2 mph - N/A Rain Light Rain
11:35 AM 44.4 °F - 39.7 °F 84% 29.69 in 10.0 mi Calm Calm - N/A   Scattered Clouds
11:55 AM 47.1 °F - 40.6 °F 78% 29.66 in 10.0 mi NE 3.5 mph - N/A   Clear
12:15 PM 48.6 °F - 41.4 °F 76% 29.63 in 10.0 mi North 3.5 mph - N/A   Clear
12:35 PM 50.0 °F - 41.7 °F 73% 29.62 in 10.0 mi North 6.9 mph - N/A   Clear
12:55 PM 48.6 °F - 38.3 °F 68% 29.60 in 10.0 mi NE 6.9 mph - N/A   Clear
1:15 PM 50.4 °F - 38.8 °F 65% 29.59 in 10.0 mi NE 10.4 mph - N/A   Clear
1:35 PM 49.6 °F - 37.0 °F 62% 29.58 in 10.0 mi NE 9.2 mph - N/A   Clear
1:55 PM 51.1 °F - 37.8 °F 60% 29.58 in 10.0 mi ENE 11.5 mph - N/A   Clear
2:15 PM 51.3 °F - 36.1 °F 56% 29.57 in 10.0 mi ENE 12.7 mph 19.6 mph N/A   Clear
2:35 PM 50.5 °F - 36.0 °F 57% 29.57 in 10.0 mi ENE 13.8 mph 18.4 mph N/A   Clear
2:55 PM 49.8 °F - 35.1 °F 57% 29.56 in 10.0 mi East 11.5 mph 21.9 mph N/A   Clear
3:15 PM 48.2 °F - 34.3 °F 59% 29.56 in 10.0 mi ENE 13.8 mph 20.7 mph N/A   Clear
3:35 PM 48.0 °F - 34.5 °F 60% 29.54 in 10.0 mi ENE 15.0 mph 18.4 mph N/A   Clear
3:55 PM 48.4 °F - 34.7 °F 59% 29.54 in 10.0 mi ENE 11.5 mph 19.6 mph N/A   Clear
4:15 PM 48.2 °F - 35.1 °F 60% 29.52 in 10.0 mi East 11.5 mph 17.3 mph N/A   Clear
4:35 PM 47.3 °F - 35.2 °F 63% 29.51 in 10.0 mi East 12.7 mph - N/A   Clear
4:55 PM 47.7 °F - 35.6 °F 63% 29.50 in 10.0 mi ENE 9.2 mph - N/A   Clear
5:15 PM 46.6 °F - 34.7 °F 63% 29.49 in 10.0 mi NE 10.4 mph 18.4 mph N/A   Clear
5:35 PM 46.6 °F - 35.2 °F 65% 29.48 in 10.0 mi NE 9.2 mph - N/A   Clear
5:55 PM 47.1 °F - 35.6 °F 64% 29.47 in 10.0 mi NE 9.2 mph - N/A   Clear
6:15 PM 45.5 °F 41.8 °F 35.2 °F 67% 29.46 in 10.0 mi NNE 6.9 mph - N/A   Clear
6:35 PM 44.6 °F 39.2 °F 34.9 °F 69% 29.45 in 10.0 mi ENE 10.4 mph - N/A   Clear
6:55 PM 44.4 °F 40.0 °F 34.9 °F 69% 29.45 in 10.0 mi ENE 8.1 mph - N/A   Clear
7:15 PM 43.3 °F 39.9 °F 34.7 °F 72% 29.48 in 10.0 mi NE 5.8 mph - N/A   Clear
7:35 PM 43.3 °F 40.7 °F 34.7 °F 72% 29.49 in 10.0 mi North 4.6 mph - N/A   Clear
7:55 PM 42.8 °F 41.1 °F 34.3 °F 72% 29.49 in 10.0 mi ENE 3.5 mph - N/A   Clear
8:15 PM 42.4 °F - 34.0 °F 72% 29.50 in 10.0 mi Calm Calm - N/A   Clear
8:35 PM 41.2 °F - 34.2 °F 76% 29.50 in 10.0 mi Calm Calm - N/A   Clear
8:55 PM 41.0 °F - 34.0 °F 76% 29.51 in 10.0 mi Calm Calm - N/A   Clear
9:15 PM 40.8 °F 38.8 °F 34.3 °F 78% 29.51 in 10.0 mi WSW 3.5 mph - N/A   Clear
9:35 PM 39.4 °F 37.2 °F 33.8 °F 80% 29.53 in 10.0 mi WNW 3.5 mph - N/A   Clear
9:55 PM 38.7 °F 34.3 °F 34.2 °F 84% 29.54 in 10.0 mi SW 5.8 mph - N/A   Clear
10:15 PM 39.7 °F 35.6 °F 34.3 °F 81% 29.54 in 10.0 mi SSW 5.8 mph - N/A   Clear
10:35 PM 41.9 °F 38.2 °F 35.2 °F 77% 29.55 in 10.0 mi SW 5.8 mph - N/A   Clear
10:55 PM 41.5 °F - 35.1 °F 78% 29.55 in 10.0 mi Calm Calm - N/A   Clear
11:15 PM 45.7 °F 41.0 °F 38.3 °F 75% 29.56 in 10.0 mi WSW 9.2 mph - N/A   Clear
11:35 PM 54.5 °F - 41.9 °F 62% 29.56 in 10.0 mi West 10.4 mph 16.1 mph N/A   Clear
11:55 PM 57.6 °F - 43.3 °F 59% 29.57 in 10.0 mi West 6.9 mph - N/A   Clear